Voltar ao catálogo

STARLINK-4757

AtivoComunicaçõesVLEO
NORAD 53824·PAYLOAD·🇺🇸 United States

Lançado Sep 19, 2022 de Cape Canaveral Space Force Station

Loading…

Próximas Passagens (próximas 24 horas)

TLE

AtualizadoSource: CelesTrak SupGP

Época: Sep 14, 2026, 21:18 UTC

1 53824C 22114G   26257.88798611 -.00027365  00000+0 -78316-3 0  2571
2 53824  53.1589 166.1239 0001236  91.1178  83.1874 15.35403733    18

Acompanhe STARLINK-4757 em tempo real com AllMySat

Download on the App Store